Regional Weather Roundup
Issued by NWS Northern Indiana

Home | Current Version | Previous Version | Graphics & Text | Print | Product List | Glossary On
Versions: 1 2 3 4 5 6 7 8 9 10 11 12 13 14 15 16 17 18 19 20 21 22 23 24 25 26 27 28 29 30 31 32 33 34 35 36 37 38 39 40 41 42 43 44 45 46 47 48 49 50
000
ASUS43 KIWX 200810
RWRIWX

KIWX WEATHER ROUNDUP
NATIONAL WEATHER SERVICE NORTHERN INDIANA
400 AM EDT SUN AUG 20 2017

NOTE: "FAIR" INDICATES FEW OR NO CLOUDS BELOW 12,000 FEET WITH NO
SIGNIFICANT WEATHER AND/OR OBSTRUCTIONS TO VISIBILITY.

* THESE STATIONS ARE NOT UNDER NWS QUALITY CONTROL. THEY ALSO MAY NOT
  REPORT WEATHER SUCH AS PRECIPITATION OR FOG.

INZ001>027-200900-
NORTHERN INDIANA

CITY           SKY/WX    TMP DP  RH WIND       PRES   REMARKS
GARY*          CLEAR     65  59  78 SE5       30.02S
VALPARAISO     CLEAR     60  58  92 CALM      30.03S
MICHIGAN CITY* CLEAR     55  55 100 CALM      30.03S
LAPORTE*       CLEAR     56  54  95 CALM      30.04S
KNOX*          CLEAR     55  55 100 CALM      30.03S
SOUTH BEND     CLEAR     57  57 100 CALM      30.04S
GOSHEN         CLEAR     57  54  89 CALM      30.04S FOG
MONTICELLO*    CLEAR     63  62  95 CALM      30.01F
LOGANSPORT*    CLEAR     59  59 100 CALM      30.03S
ROCHESTER*     CLEAR     61  61 100 CALM      30.04S
WARSAW*        CLEAR     59  59 100 CALM      30.04S
AUBURN*        CLEAR     59  57  94 CALM      30.05S
FORT WAYNE     CLEAR     60  58  92 CALM      30.04S
HUNTINGTON*    CLEAR     59  58  96 CALM      30.03F FOG
PERU/GRISSOM   CLEAR     64  61  88 SE5       30.02S

$$
INZ028>050-200900-
CENTRAL INDIANA

CITY           SKY/WX    TMP DP  RH WIND       PRES   REMARKS
LAFAYETTE      CLEAR     65  62  90 CALM      30.01S
KOKOMO*        CLEAR     62  60  93 CALM      30.04S
MUNCIE*        PTCLDY    67  62  84 E3        30.04S
INDIANAPOLIS   PTCLDY    72  62  71 E7        30.01S

$$
MIZ043>046-050>051-056>058-064>065-071>073-077>080-200900-
SOUTHWEST LOWER MICHIGAN

CITY           SKY/WX    TMP DP  RH WIND       PRES   REMARKS
BATTLE CREEK   CLEAR     58  56  93 CALM      30.05R
BENTON HARBOR  CLEAR     56  54  93 E3        30.02S
COLDWATER*     CLEAR     56  56 100 CALM      30.05R
HILLSDALE*     CLEAR     55  54  94 CALM      30.05S
HOLLAND        CLEAR     60  57  89 CALM      30.03R
GRAND RAPIDS   CLEAR     58  58 100 S3        30.03R
KALAMAZOO      CLEAR     57  54  89 CALM      30.04S FOG
STURGIS*       CLEAR     57  56  97 CALM      30.04R
THREE RIVERS*  FAIR      57  56  95 CALM      30.05R

$$
OHZ001>008-015>018-024>025-200900-
NORTHWEST OHIO

CITY           SKY/WX    TMP DP  RH WIND       PRES   REMARKS
WAUSEON*       FAIR      57  55  94 CALM      30.04R FOG
DEFIANCE       PTCLDY    59  57  93 CALM      30.04S FOG
FINDLAY        CLEAR     62  57  83 CALM      30.04S
TOLEDO EXPRESS CLEAR     59  59 100 CALM      30.04R
TOLEDO METCALF CLEAR     62  60  93 CALM      30.04S
LIMA           CLEAR     58  58 100 CALM      30.05S

$$
AND FOR LAKE MICHIGAN COASTAL AND OPEN LAKE BUOY OBSERVATIONS

STATION/POSITION TEMP    WIND        PRES    VSBY  WAVE
                 AIR SEA DIR/SP/G                  HT/PER
                 (F)     (DEG/KT/KT) (MB)    (MI)  (FT/S)
CALUMET HARBOR    69     170/  2/  4 1015.6F
MICHIGAN CITY     66     130/  8/  9   N/A
BURNS HARBOR      71     150/  6/ 10 1016.9S
SAINT JOSEPH      63     150/  2/  5 1016.6
SOUTH LAKE BUOY   72 71  160/  6/  6 1015.8S         1
4 MI NW BRIDGMAN  70 75  160/ 10/ 12 1016.3          1
MICHIGAN CITY     70 74  160/ 10/ 12   N/A           1

$$
&&




USA.gov is the U.S. government's official web portal to all federal, state and local government web resources and services.